DWS9845 Weather Reports


time (UTC)temp
C
wind
direction
speed
KPH
gust
KPH
rain 1hr
cm
rain 24hr
cm
rain mn
cm
humidity
%
barometer
mb
20260504192339 28 191 1.6 6.4 0.00 0.00 0.00 63 1012.1
20260504191840 27 191 3.2 11.3 0.00 0.00 0.00 64 1012.0
20260504191559 27 191 4.8 11.3 0.00 0.00 0.00 62 1012.1
20260504190840 28 189 4.8 14.5 0.00 0.00 0.00 62 1012.1
20260504190337 28 191 4.8 14.5 0.00 0.00 0.00 63 1012.1
20260504185836 28 188 4.8 8.0 0.00 0.00 0.00 61 1012.2
20260504185336 27 188 4.8 16.1 0.00 0.00 0.00 63 1012.2
20260504185102 28 188 4.8 16.1 0.00 0.00 0.00 60 1012.3
20260504184336 28 167 4.8 14.5 0.00 0.00 0.00 61 1012.3
20260504183834 27 196 4.8 9.7 0.00 0.00 0.00 62 1012.3
20260504183328 27 196 4.8 9.7 0.00 0.00 0.00 63 1012.2
20260504182812 27 195 3.2 9.7 0.00 0.00 0.00 61 1012.4
20260504182312 27 194 3.2 11.3 0.00 0.00 0.00 63 1012.4
20260504182035 27 194 3.2 11.3 0.00 0.00 0.00 63 1012.6
20260504181305 27 195 3.2 8.0 0.00 0.00 0.00 64 1012.6
20260504180806 27 193 4.8 12.9 0.00 0.00 0.00 61 1012.8
20260504180306 27 194 4.8 14.5 0.00 0.00 0.00 61 1012.8
20260504175759 27 192 4.8 14.5 0.00 0.00 0.00 62 1012.9
20260504175254 27 188 4.8 9.7 0.00 0.00 0.00 61 1013.0
20260504174754 27 203 4.8 9.7 0.00 0.00 0.00 61 1013.1
20260504174250 27 205 4.8 12.9 0.00 0.00 0.00 61 1013.0
20260504173748 27 205 4.8 12.9 0.00 0.00 0.00 62 1012.9
20260504173508 27 216 3.2 9.7 0.00 0.00 0.00 63 1013.2
20260504173011 27 213 3.2 9.7 0.00 0.00 0.00 63 1013.3
20260504172500 27 217 3.2 9.7 0.00 0.00 0.00 63 1013.5
20260504171740 26 217 3.2 17.7 0.00 0.00 0.00 64 1013.4
20260504171238 26 217 4.8 17.7 0.00 0.00 0.00 62 1013.5
20260504170736 26 190 4.8 11.3 0.00 0.00 0.00 63 1013.7
20260504170236 26 187 4.8 11.3 0.00 0.00 0.00 62 1013.6
20260504160215 25 202 3.2 9.7 0.00 0.00 0.00 69 1014.4
20260504151147 24 205 4.8 11.3 0.00 0.00 0.00 70 1014.3
20260504150647 24 204 4.8 11.3 0.00 0.00 0.00 70 1014.3
20260504150147 24 200 4.8 14.5 0.00 0.00 0.00 71 1014.4
20260504141120 22 201 1.6 6.4 0.00 0.00 0.00 75 1014.4
20260504140615 22 201 1.6 4.8 0.00 0.00 0.00 76 1014.3
20260504140116 22 201 1.6 6.4 0.00 0.00 0.00 76 1014.2
20260504130442 17 201 0.0 1.6 0.00 0.00 0.00 85 1014.1
20260504130200 17 201 0.0 1.6 0.00 0.00 0.00 86 1014.1
20260504120154 14 201 0.0 0.0 0.00 0.00 0.00 85 1013.9
20260504110710 15 201 0.0 0.0 0.00 0.00 0.00 83 1013.9
20260504100417 15 201 0.0 0.0 0.00 0.00 0.00 84 1014.2
20260504081837 15 201 0.0 0.0 0.00 0.00 0.00 79 1014.9
20260504081338 15 201 0.0 0.0 0.00 0.00 0.00 79 1014.9
20260504081027 15 201 0.0 0.0 0.00 0.00 0.00 80 1015.0
20260504080255 16 201 0.0 0.0 0.00 0.00 0.00 80 1015.2
20260504070131 16 201 0.0 0.0 0.00 0.00 0.00 79 1015.9
20260504050706 17 201 0.0 0.0 0.00 0.00 0.00 75 1016.7
20260504050152 17 201 0.0 0.0 0.00 0.00 0.00 74 1016.8
20260504045650 17 201 0.0 0.0 0.00 0.00 0.00 74 1016.7
20260504045135 17 201 0.0 0.0 0.00 0.00 0.00 73 1016.7
20260504045115 17 201 0.0 0.0 0.00 0.00 0.00 73 1016.9
20260504044058 17 201 0.0 0.0 0.00 0.00 0.00 73 1016.9
20260504043552 17 201 0.0 0.0 0.00 0.00 0.00 72 1016.9
20260504043045 17 201 0.0 0.0 0.00 0.00 0.00 71 1017.1
20260504043025 17 201 0.0 0.0 0.00 0.00 0.00 71 1017.0
20260504042026 18 201 0.0 1.6 0.00 0.00 0.00 71 1017.0
20260504041722 18 201 0.0 1.6 0.00 0.00 0.00 71 1017.0
20260504040954 18 201 0.0 1.6 0.00 0.00 0.00 71 1016.9
20260504040454 18 201 0.0 1.6 0.00 0.00 0.00 71 1016.7
20260504035953 18 201 0.0 1.6 0.00 0.00 0.00 70 1016.8
20260504035452 18 201 0.0 0.0 0.00 0.00 0.00 70 1016.8
20260504034932 18 201 0.0 0.0 0.00 0.00 0.00 70 1016.9
20260504034651 18 201 0.0 0.0 0.00 0.00 0.00 69 1017.0
20260504034125 18 201 0.0 0.0 0.00 0.00 0.00 69 1017.0
20260504033622 18 201 0.0 1.6 0.00 0.00 0.00 69 1017.0
20260504033122 18 201 0.0 1.6 0.00 0.00 0.00 69 1016.9
20260504032400 18 201 0.0 0.0 0.00 0.00 0.00 69 1016.8
20260504031900 19 201 0.0 1.6 0.00 0.00 0.00 68 1016.9
20260504031355 19 201 0.0 3.2 0.00 0.00 0.00 69 1016.9
20260504030855 19 201 0.0 3.2 0.00 0.00 0.00 69 1016.9
20260504030354 19 201 0.0 0.0 0.00 0.00 0.00 68 1016.8
20260504025850 19 201 0.0 1.6 0.00 0.00 0.00 67 1016.8
20260504025326 19 201 0.0 1.6 0.00 0.00 0.00 67 1016.7
20260504024818 20 201 0.0 1.6 0.00 0.00 0.00 67 1016.7
20260504024310 20 201 0.0 3.2 0.00 0.00 0.00 66 1016.8
20260504023800 20 201 0.0 3.2 0.00 0.00 0.00 66 1016.7
20260504023254 20 201 0.0 3.2 0.00 0.00 0.00 66 1016.7
20260504023242 20 201 0.0 3.2 0.00 0.00 0.00 66 1016.7
20260504022513 20 201 0.0 3.2 0.00 0.00 0.00 65 1016.6
20260504021752 20 201 0.0 3.2 0.00 0.00 0.00 64 1016.6
20260504021221 20 201 0.0 3.2 0.00 0.00 0.00 64 1016.6
20260504020708 20 201 0.0 3.2 0.00 0.00 0.00 64 1016.5
20260504020205 20 201 0.0 4.8 0.00 0.00 0.00 63 1016.5
20260504015906 21 201 0.0 4.8 0.00 0.00 0.00 63 1016.5
20260504015620 21 201 1.6 4.8 0.00 0.00 0.00 63 1016.5
20260504014633 21 201 0.0 4.8 0.00 0.00 0.00 63 1016.6
20260504014112 21 201 0.0 3.2 0.00 0.00 0.00 62 1016.5
20260504013611 21 201 0.0 4.8 0.00 0.00 0.00 61 1016.5
20260504013103 21 201 1.6 6.4 0.00 0.00 0.00 61 1016.5
20260504012603 21 201 1.6 8.0 0.00 0.00 0.00 60 1016.6
20260504012328 21 201 1.6 8.0 0.00 0.00 0.00 60 1016.5
20260504011600 21 201 1.6 4.8 0.00 0.00 0.00 60 1016.5
20260504011100 22 201 0.0 4.8 0.00 0.00 0.00 59 1016.4
20260504010556 22 201 0.0 4.8 0.00 0.00 0.00 59 1016.4
20260504010052 22 201 1.6 4.8 0.00 0.00 0.00 58 1016.3
20260504005552 22 201 1.6 1.6 0.00 0.00 0.00 58 1016.5
20260504005050 22 201 1.6 4.8 0.00 0.00 0.00 56 1016.6
20260504004800 22 201 1.6 4.8 0.00 0.00 0.00 56 1016.5
20260504004038 22 201 1.6 6.4 0.00 0.00 0.00 55 1016.5
20260504003507 22 201 1.6 6.4 0.00 0.00 0.00 55 1016.4
20260504003007 23 201 1.6 8.0 0.00 0.00 0.00 54 1016.5
20260504002458 23 201 1.6 8.0 0.00 0.00 0.00 53 1016.5
20260504002000 23 201 1.6 6.4 0.00 0.00 0.00 52 1016.4
20260504001459 23 201 1.6 6.4 0.00 0.00 0.00 52 1016.4
20260504001222 23 201 3.2 8.0 0.00 0.00 0.00 51 1016.4
20260504000447 23 201 3.2 8.0 0.00 0.00 0.00 51 1016.5
20260503235948 23 201 3.2 9.7 0.00 0.00 0.00 51 1016.5
20260503235446 24 201 3.2 9.7 0.00 0.00 0.00 51 1016.6
20260503234945 24 202 3.2 9.7 0.00 0.00 0.00 50 1016.5
20260503234445 24 201 3.2 14.5 0.00 0.00 0.00 50 1016.4
20260503233946 24 203 3.2 14.5 0.00 0.00 0.00 49 1016.5
20260503233440 25 196 3.2 11.3 0.00 0.00 0.00 48 1016.7
20260503232938 25 197 3.2 9.7 0.00 0.00 0.00 48 1016.8
20260503232432 25 203 3.2 8.0 0.00 0.00 0.00 48 1016.8
20260503231922 25 204 3.2 8.0 0.00 0.00 0.00 49 1016.8
20260503231420 25 199 3.2 9.7 0.00 0.00 0.00 48 1016.8
20260503230920 25 199 3.2 9.7 0.00 0.00 0.00 47 1016.7
20260503230406 25 210 3.2 8.0 0.00 0.00 0.00 47 1016.8
20260503225908 25 210 3.2 9.7 0.00 0.00 0.00 48 1016.8
20260503225609 25 211 3.2 9.7 0.00 0.00 0.00 47 1016.9
20260503224839 25 211 3.2 14.5 0.00 0.00 0.00 47 1017.0
20260503224334 25 211 3.2 14.5 0.00 0.00 0.00 48 1017.0
20260503223830 25 186 3.2 8.0 0.00 0.00 0.00 48 1016.9
20260503223316 25 187 1.6 9.7 0.00 0.00 0.00 48 1017.2
20260503222813 25 187 3.2 9.7 0.00 0.00 0.00 46 1017.1
20260503222314 26 186 1.6 8.0 0.00 0.00 0.00 45 1017.3
20260503222300 26 186 3.2 9.7 0.00 0.00 0.00 46 1017.3
20260503221534 26 186 3.2 9.7 0.00 0.00 0.00 46 1017.3
20260503220810 26 184 3.2 8.0 0.00 0.00 0.00 46 1017.3
20260503220308 26 188 3.2 11.3 0.00 0.00 0.00 46 1017.3
20260503215802 26 188 4.8 11.3 0.00 0.00 0.00 45 1017.2
20260503215259 26 187 3.2 9.7 0.00 0.00 0.00 45 1017.2
20260503214800 26 184 3.2 9.7 0.00 0.00 0.00 45 1017.2
20260503214300 26 184 1.6 9.7 0.00 0.00 0.00 46 1017.4
20260503213758 26 184 3.2 8.0 0.00 0.00 0.00 46 1017.5
20260503213256 26 184 3.2 8.0 0.00 0.00 0.00 45 1017.6
20260503212755 26 184 3.2 11.3 0.00 0.00 0.00 46 1017.5
20260503212256 26 184 3.2 12.9 0.00 0.00 0.00 45 1017.7
20260503211755 26 183 3.2 12.9 0.00 0.00 0.00 45 1017.8
20260503211256 27 182 3.2 11.3 0.00 0.00 0.00 43 1017.7
20260503211018 27 117 3.2 11.3 0.00 0.00 0.00 40 1017.8
20260503210510 27 102 3.2 12.9 0.00 0.00 0.00 42 1017.9
20260503205741 27 99 1.6 12.9 0.00 0.00 0.00 42 1017.9
20260503205242 27 82 1.6 8.0 0.00 0.00 0.00 41 1018.0
20260503204739 27 81 3.2 11.3 0.00 0.00 0.00 39 1018.1
20260503204240 27 77 3.2 11.3 0.00 0.00 0.00 39 1018.2
20260503203954 27 154 3.2 12.9 0.00 0.00 0.00 40 1018.2
20260503203236 27 146 3.2 12.9 0.00 0.00 0.00 39 1018.2
20260503202732 27 90 3.2 9.7 0.00 0.00 0.00 37 1018.3
20260503202230 27 134 1.6 8.0 0.00 0.00 0.00 39 1018.5
20260503201728 27 134 3.2 12.9 0.00 0.00 0.00 39 1018.6
20260503201225 27 158 3.2 12.9 0.00 0.00 0.00 37 1018.7
20260503200942 27 101 1.6 9.7 0.00 0.00 0.00 40 1018.8
20260503200218 27 100 3.2 11.3 0.00 0.00 0.00 39 1018.8
20260503195717 27 100 3.2 11.3 0.00 0.00 0.00 39 1018.9
20260503195216 27 117 4.8 14.5 0.00 0.00 0.00 37 1019.0
20260503194713 27 184 4.8 14.5 0.00 0.00 0.00 37 1019.0
20260503194211 27 198 3.2 12.9 0.00 0.00 0.00 37 1019.0
20260503193710 27 111 3.2 9.7 0.00 0.00 0.00 40 1019.1
20260503193210 27 89 1.6 9.7 0.00 0.00 0.00 37 1019.1
20260503192710 27 90 1.6 8.0 0.00 0.00 0.00 41 1019.2